This is the latest recevied weather packets stored in our database for station/object IW1RCO-13. If no packets are shown the sender has not sent any weather packets the latest 10 day(s).
| Time | Temp. | Humidity | Pressure | Rain* | Wind** | Luminosity | Snow |
|---|---|---|---|---|---|---|---|
| 1788549871 | 21.11° C | 70% | 1019.6 hPa | - | - | - | - |
| 1788549567 | 21.11° C | 70% | 1019.8 hPa | - | - | - | - |
| 1788547173 | 21.67° C | 68% | 1019.6 hPa | - | - | - | - |
| 1788546869 | 21.67° C | 68% | 1019.4 hPa | - | - | - | - |
| 1788546573 | 21.67° C | 68% | 1019.7 hPa | - | - | - | - |
| 1788546269 | 21.67° C | 69% | 1019.4 hPa | - | - | - | - |
| 1788545972 | 21.67° C | 69% | 1018.9 hPa | - | - | - | - |
| 1788545669 | 22.22° C | 68% | 1019.7 hPa | - | - | - | - |
| 1788545372 | 22.22° C | 67% | 1020 hPa | - | - | - | - |
| 1788545069 | 22.22° C | 67% | 1019.6 hPa | - | - | - | - |
| 1788544772 | 22.78° C | 65% | 1019.8 hPa | - | - | - | - |
| 1788544468 | 23.33° C | 66% | 1019.1 hPa | - | - | - | - |
| 1788544172 | 23.33° C | 65% | 1018.6 hPa | - | - | - | - |
| 1788543868 | 23.33° C | 66% | 1019.5 hPa | - | - | - | - |
| 1788543571 | 23.33° C | 66% | 1019.3 hPa | - | - | - | - |
| 1788543268 | 23.89° C | 64% | 1019.6 hPa | - | - | - | - |
| 1788542971 | 24.44° C | 62% | 1019.9 hPa | - | - | - | - |
| 1788542371 | 25.56° C | 61% | 1019.5 hPa | - | - | - | - |
| 1788542067 | 25.56° C | 59% | 1019.9 hPa | - | - | - | - |
| 1788541770 | 26.11° C | 59% | 1019.9 hPa | - | - | - | - |
| 1788541467 | 26.11° C | 61% | 1019.9 hPa | - | - | - | - |
| 1788541170 | 26.11° C | 58% | 1019.8 hPa | - | - | - | - |
| 1788540866 | 26.11° C | 59% | 1019.4 hPa | - | - | - | - |
| 1788540570 | 26.67° C | 57% | 1019.7 hPa | - | - | - | - |
| 1788540273 | 26.67° C | 56% | 1019.8 hPa | - | - | - | - |
* Rain since midnight (hover to see other rain measurements)
** Current wind speed in m/s (hover to see current wind gust speed)